Aérodrome :
LOGIN :

S'inscrire | Disclaimer

   EN    FR    IT 

 










Légende :    VFR   VFR Marginal   IFR   IFR Intensif   IFR Très Intensif
Visi : 
Plafond : 
>= 8 km
>= 3000ft
5 à 8 km
1000 à 3000 ft
1500m à 5 km
500 à 1000 ft
800 à 1500m
200 à 500 ft
< 800m
< 200 ft
Symboles :   Orages  Brouillard  Fortes neiges  Fortes précipitations  Vent > 20 kt
SIGMETs :   Divers  Orages  Givrage  Turbulence  Onde Orograph.  Cendres Volcan.







- Altitude de l'aérodrome : 13 ft
- Code IATA : CAG


LIEE - Cagliari Elmas

DERNIER METAR :
  • 200920Z 22005KT CAVOK 22/12 Q1013

METARs EXPIRÉS :
  • 200850Z 20004KT 160V240 CAVOK 22/12 Q1013
  • 200820Z VRB03KT CAVOK 21/12 Q1013
  • 200750Z 31005KT CAVOK 19/13 Q1013
  • 200720Z 31005KT CAVOK 18/14 Q1013
  • 200650Z 32006KT 290V350 CAVOK 17/14 Q1013

TAF TAF LIEE
Valide du 20 à 06h jusqu'au 21 à 06h UTC


200500Z 2006/2106 VRB05KT 9999 SCT030
BECMG 2010/2012 16012KT
TEMPO 2012/2018 4000 SHRA
BECMG 2016/2018 VRB05KT
Pas de NOTAMs connus pour ce terrain.



MET'MAP, la Météo Aéronautique d'un coup d'oeil ! - Copyright ORBIFLY Décembre 2007 - Disclaimer

ORBIFLY MET'MAP TEAM :

Programmation & Développement : Alexandra Zaïnal
Conception & Développement : Baudouin d'Aumeries
Co-Programmation & Développement : Marc-Olivier Méhu
Soutien technique & logistique : Manuel Goepfert

Contact : metmap@orbifly.com




SOURCES & CREDITS :

   NOAA